Home   Weather   Howell   Past weeks
Flag for USA

Past Weather in Howell, Michigan, USA — Yesterday and Last 2 Weeks

Now
33 °F

Fog.


Feels Like: 25 °F
Forecast: 35 / 33 °F
Wind: 10 mph from West

Location: Livingston County Airport

Current Time: Jan 26, 2020 at 3:38:42 am

Latest Report: Jan 26, 2020 at 2:56 am


Visibility: 1 mi

Pressure: 29.79 "Hg

Humidity: 97%

Dew Point: 32 °F

Location of HowellLocation

Past Weather in Howell — Graph

°F

Howell Temperature Yesterday

Maximum temperature yesterday: 37 °F (at 12:56 am)
Minimum temperature yesterday: 33 °F (at 8:56 pm)
Average temperature yesterday: 35 °F

High & Low Weather Summary for the Past Weeks

 TemperatureHumidityPressure
High54 °F (Jan 11, 4:56 am)98% (Jan 25, 8:56 pm)30.81 "Hg (Jan 25, 8:56 pm)
Low6 °F (Jan 20, 3:35 am)45% (Jan 22, 2:35 pm)29.50 "Hg (Jan 18, 2:36 pm)
Average29 °F80%30.17 "Hg
* Reported Jan 11 2:15 am — Jan 26 2:15 am, Howell. Weather by CustomWeather, © 2020

Note: Actual official high and low records may vary slightly from our data, if they occured in-between our weather recording intervals... More about our weather records

Howell Weather History for the Previous 24 Hours

Scroll right to see more
 ConditionsComfort  
Time TempWeatherWind HumidityBarometerVisibility
2:15 am
Sun, Jan 26
33 °FFog.13 mph97%29.78 "Hg2 mi
1:55 am33 °FFog.9 mph97%29.78 "Hg2 mi
1:36 am33 °FFog.10 mph96%29.78 "Hg1 mi
1:16 am33 °FFog.10 mph96%29.78 "Hg2 mi
12:55 am33 °FFog.8 mph96%29.78 "Hg2 mi
12:36 am33 °FFog.8 mph96%29.78 "Hg3 mi
12:15 am33 °FFog.8 mph96%29.78 "Hg4 mi
11:55 pm
Sat, Jan 25
33 °FFog.8 mph96%29.78 "Hg2 mi
11:35 pm33 °FFog.8 mph96%29.78 "Hg3 mi
11:15 pm33 °FLow clouds.7 mph96%29.78 "Hg7 mi
10:55 pm33 °FLow clouds.8 mph96%29.78 "Hg10 mi
10:36 pm33 °FLow clouds.9 mph96%29.78 "Hg10 mi
10:15 pm33 °FLight rain. Low clouds.6 mph96%29.78 "Hg7 mi
9:35 pm33 °FLight snow. Low clouds.5 mph98%29.77 "Hg2 mi
9:15 pm33 °FLight snow. Low clouds.5 mph98%29.78 "Hg2 mi
8:56 pm33 °FLight snow. Low clouds.3 mph98%29.78 "Hg2 mi
8:35 pm33 °FLight snow. Low clouds.3 mph97%29.78 "Hg1 mi
7:55 pm33 °FLight snow. Mostly cloudy.6 mph96%29.79 "Hg2 mi
7:35 pm33 °FLight snow. Mostly cloudy.5 mph95%29.78 "Hg2 mi
7:16 pm33 °FLight snow. Overcast.6 mph94%29.78 "Hg4 mi
6:55 pm34 °FOvercast.5 mph92%29.78 "Hg10 mi
6:35 pm34 °FLight snow. Overcast.5 mph92%29.78 "Hg10 mi
6:15 pm34 °FOvercast.5 mph92%29.78 "Hg10 mi
5:55 pm34 °FOvercast.5 mph92%29.78 "Hg10 mi
5:36 pm34 °FMostly cloudy.6 mph92%29.77 "Hg10 mi
4:55 pm34 °FOvercast.6 mph92%29.77 "Hg10 mi
4:35 pm34 °FOvercast.8 mph91%29.77 "Hg10 mi
4:15 pm35 °FOvercast.7 mph90%29.76 "Hg10 mi
3:55 pm35 °FMostly cloudy.7 mph91%29.76 "Hg10 mi
3:35 pm35 °FMostly cloudy.6 mph91%29.76 "Hg7 mi
3:15 pm35 °FLow clouds.6 mph92%29.76 "Hg7 mi
2:55 pm35 °FFog.8 mph93%29.77 "Hg5 mi
2:36 pm35 °FLight rain. Low clouds.7 mph93%29.77 "Hg5 mi
2:15 pm35 °FFog.8 mph95%29.78 "Hg3 mi
1:55 pm34 °FFog.8 mph95%29.78 "Hg3 mi
1:35 pm35 °FLight rain. Low clouds.6 mph95%29.78 "Hg1 mi
1:16 pm35 °FFog.6 mph94%29.79 "Hg2 mi
12:56 pm35 °FDrizzle. Low clouds.6 mph94%29.80 "Hg2 mi
12:35 pm35 °FDrizzle. Low clouds.5 mph93%29.80 "Hg2 mi
12:15 pm35 °FDrizzle. Low clouds.6 mph92%29.81 "Hg5 mi
11:56 am35 °FMostly cloudy.6 mph92%29.81 "Hg7 mi
11:36 am35 °FOvercast.3 mph93%29.82 "Hg10 mi
11:15 am34 °FLow clouds.5 mph95%29.82 "Hg10 mi
10:55 am34 °FFog.7 mph95%29.82 "Hg5 mi
10:36 am34 °FFog.7 mph95%29.82 "Hg5 mi
10:15 am34 °FFog.6 mph96%29.82 "Hg4 mi
9:55 am34 °FFog.6 mph97%29.81 "Hg4 mi
9:35 am34 °FFog.6 mph97%29.81 "Hg3 mi
9:15 am34 °FFog.5 mph97%29.80 "Hg4 mi
8:36 am34 °FFog.5 mph97%29.79 "Hg4 mi
8:15 am34 °FFog.5 mph97%29.79 "Hg4 mi
7:56 am34 °FFog.3 mph97%29.79 "Hg5 mi
7:36 am34 °FLow clouds.3 mph97%29.78 "Hg7 mi
7:16 am34 °FLight rain. Low clouds.3 mph97%29.78 "Hg7 mi
6:56 am34 °FLight rain. Low clouds.No wind97%29.78 "Hg7 mi
6:36 am34 °FDrizzle. Low clouds.No wind97%29.78 "Hg7 mi
6:15 am34 °FLight rain. Low clouds.6 mph97%29.78 "Hg4 mi
5:56 am35 °FLight rain. Low clouds.8 mph97%29.78 "Hg5 mi
5:36 am36 °FRain. Low clouds.6 mph97%29.78 "Hg4 mi
5:15 am36 °FDrizzle. Mostly cloudy.5 mph97%29.78 "Hg3 mi
4:56 am36 °FLight rain. Mostly cloudy.6 mph97%29.78 "Hg3 mi
4:36 am36 °FFog.5 mph97%29.78 "Hg1 mi
4:15 am36 °FRain. Low clouds.No wind97%29.78 "Hg1 mi
3:55 am36 °FLight rain. Low clouds.3 mph97%29.79 "Hg1 mi
3:35 am36 °FLight rain. Low clouds.No wind97%29.78 "Hg1 mi
3:15 am36 °FLight rain. Low clouds.No wind97%29.78 "Hg1 mi
Weather by CustomWeather, © 2020

See weather overview

Advertising